Regional Weather Roundup
Issued by NWS

Home | Current Version | Previous Version | Graphics & Text | Print | Product List | Glossary On
Versions: 1 2 3 4 5 6 7 8 9 10 11 12 13 14 15 16 17 18 19 20 21 22 23 24 25 26 27 28 29 30 31 32 33 34 35 36 37 38 39 40 41 42 43 44 45 46 47 48 49 50
000
ASUS43 KDMX 240906
RWRIA

WEATHER ROUNDUP FOR IOWA
NATIONAL WEATHER SERVICE DES MOINES IA
300 AM CST FRI FEB 24 2017

NOTE: "FAIR" INDICATES FEW OR NO CLOUDS BELOW 12,000 FEET WITH NO
SIGNIFICANT WEATHER AND/OR OBSTRUCTIONS TO VISIBILITY.

* - THESE STATIONS ARE NOT NWS STATIONS...THUS NOT UNDER NWS
QUALITY CONTROL.  THEY ALSO DO NOT REPORT WEATHER SUCH
AS PRECIPITATION OR FOG.

IAZ001>003-012>014-020>022-031>034-043>046-241000-
   NORTHWEST IOWA

CITY           SKY/WX    TMP DP  RH WIND       PRES   REMARKS
CARROLL *      MOCLDY    30  30 100 NE26G37   29.59R FOG     WCI  16
CHEROKEE *     LGT SNOW  28  28  96 N18G28    29.69R WCI  16
DENISON *      CLOUDY    30  28  93 NE23G33   29.58F FOG     WCI  17
LE MARS *      LGT RAIN  28  25  86 N18G26    29.75F WCI  16
ORANGE CITY *    N/A     27  25  93 N15G26    29.74S WCI  15
SHELDON *      MIX PCPN  25  25 100 N29G38    29.72F WCI   8
SIOUX CITY     SNOW      31  27  85 N22       29.73S VSB 1/4 WCI  18
SPENCER        FOG       26  24  92 N35G43    29.69F VSB 1   WCI   9
STORM LAKE *   LGT SNOW  27  27 100 NE33G44   29.64R WCI   9
$$

IAZ055>058-069>071-079>083-090>094-241000-
   SOUTHWEST IOWA

CITY           SKY/WX    TMP DP  RH WIND       PRES   REMARKS
ATLANTIC *     CLOUDY    34  32  93 NE23G30   29.55S WCI  22
CLARINDA *     CLOUDY    36  36 100 N17       29.54S WCI  25
COUNCIL BLFS * CLOUDY    34  34 100 N17G26    29.60S WCI  23
CRESTON *      CLOUDY    34  34 100 NE22G31   29.49R WCI  22
HARLAN  *      CLOUDY    32  32 100 NE31G38   29.60R WCI  17
LAMONI         CLOUDY    39  38  96 NE16G24   29.45S WCI  30
RED OAK *      CLOUDY    36  32  87 N22G31    29.56R WCI  24
SHENANDOAH *   CLOUDY    36  34  93 N15       29.57R WCI  26
$$

IAZ047>049-059>061-072>074-084-241000-
   CENTRAL IOWA

CITY           SKY/WX    TMP DP  RH WIND       PRES   REMARKS
AMES           CLOUDY    34  34 100 NE20G28   29.56F WCI  23
ANKENY *       CLOUDY    34  34 100 N18G24    29.55R WCI  23
BOONE *        CLOUDY    32  32 100 MISG      29.53F
CHARITON *     CLOUDY    37  37 100 N16G25    29.47S WCI  28
DES MOINES     CLOUDY    36  33  89 NE22G29   29.53R WCI  25
GRINNELL*      DRIZZLE   35  34  96 N17G26    29.53F WCI  24
KNOXVILLE *    CLOUDY    37  36  93 NE17      29.47F WCI  28
MARSHALLTOWN   LGT RAIN  33  33 100 NE20G29   29.54F WCI  21
NEWTON *       CLOUDY    34  34 100 NE22G32   29.50F WCI  22
PELLA *        LGT RAIN  37  36  97 N16       29.51F WCI  27
PERRY *        CLOUDY    34  32  94 NE21G31   29.55F WCI  22
$$

IAZ004>006-015-016-023>025-035-036-241000-
   NORTH CENTRAL IOWA

CITY           SKY/WX    TMP DP  RH WIND       PRES   REMARKS
ALGONA *       FOG       28  28 100 NE35      29.63F VSB 1/2 WCI  12
CLARION *      FOG       30  30 100 N35       29.60F VSB 1/4 WCI  14
ESTHERVILLE    FOG       25  25 100 N30G40    29.70F VSB 1/4 WCI   8
FORT DODGE *   CLOUDY    28  25  86 N24G35    29.61F WCI  14
MASON CITY     FOG       29 N/A N/A N25G31    29.71F VSB 1/4 WCI  14
FOREST CITY *  HVY SNOW  30  30 100 N22       29.70F VSB<1/4 WCI  17
IOWA FALLS *   LGT SNOW  33  32  96 N18G24    29.61F WCI  22
$$

IAZ007>011-017>019-026>030-037>042-050>054-066-241000-
   NORTHEAST IOWA

CITY           SKY/WX    TMP DP  RH WIND       PRES   REMARKS
CEDAR RAPIDS   CLOUDY    35  35 100 E18       29.51R FOG     WCI  24
CHARLES CITY * LGT SNOW  32  32 100 N14       29.69R VSB 1   WCI  22
CLINTON *      CLOUDY    37  35  92 NE22      29.51F WCI  26
DECORAH *      LGT RAIN  32  30  93 NE14G28   29.57R WCI  22
DUBUQUE        MIX PCPN  33  33 100 NE26G35   29.52F FOG     WCI  20
MONTICELLO *   CLOUDY    34  34 100 NE14G29   29.51F FOG     WCI  24
OELWEIN *      LGT RAIN  34  34 100 NE25G32   29.60R WCI  21
WATERLOO       RAIN      33  31  92 N14       29.61F FOG     WCI  23
$$

IAZ064-065-067-068-078-241000-
   EAST CENTRAL IOWA

CITY           SKY/WX    TMP DP  RH WIND       PRES   REMARKS
DAVENPORT      CLOUDY    38  36  92 NE17G25   29.48F WCI  28
IOWA CITY      CLOUDY    38  34  85 NE17G25   29.50S WCI  28
MUSCATINE *    CLOUDY    39  37  93 NE9G16    29.48R WCI  33
QUAD CITIES    CLOUDY    41  36  82 E16       29.47F
$$

IAZ062-063-075>077-085>089-095>099-241000-
   SOUTHEAST IOWA

CITY           SKY/WX    TMP DP  RH WIND       PRES   REMARKS
BURLINGTON     CLOUDY    44  43  96 E12       29.38F FOG
FAIRFIELD *    CLOUDY    37  37 100 NE20      29.44R FOG     WCI  27
KEOKUK *       MOCLDY    48  46  93 E8G15     29.31F FOG
OTTUMWA        CLOUDY    38  38 100 NE16      29.47R FOG     WCI  29
WASHINGTON *   CLOUDY    37  37 100 NE17G24   29.48R FOG     WCI  28
$$

ABBREVIATIONS USED IN REMARKS
   TC - TEMPERATURES IN CELSIUS
  WCI - WIND CHILL INDEX
   HX - HEAT INDEX
  VSB - VISIBILITY
$$





USA.gov is the U.S. government's official web portal to all federal, state and local government web resources and services.